Theta_e
328 329 330 332 335 336 338 341 343 343 342 342 342 341 340 339 338 335 331 331 335 335 330 319 318 317 324 327 325 323 322 321 320 321 323 325 324 316 317 313 312 316 321
325 326 328 329 330 333 333 337 339 342 342 342 339 337 336 334 333 332 331 330 333 332 325 321 320 330 324 326 325 323 322 322 323 324 323 324 318 310 312 314 314 321 319
320 322 326 326 328 329 332 331 336 338 340 340 338 337 336 337 335 333 333 330 329 332 327 325 325 331 330 329 324 325 324 325 326 325 324 321 319 314 315 316 317 319 321
318 318 322 326 324 324 326 330 333 332 334 337 338 337 336 339 335 334 333 329 330 329 328 328 333 332 325 325 323 322 325 325 326 326 322 322 320 319 316 324 325 324 325
317 317 318 325 324 322 322 324 327 331 331 332 334 337 335 336 335 333 332 325 328 330 326 323 323 329 330 325 324 322 325 322 326 327 325 323 323 323 322 326 325 325 325
317 317 317 320 324 320 320 320 320 321 326 330 329 333 334 334 335 333 329 331 331 329 330 326 325 329 330 329 327 322 323 322 319 325 326 325 324 324 326 326 325 324 325
315 316 316 317 323 320 319 318 320 320 319 320 326 328 327 331 332 333 330 326 325 330 333 332 332 331 330 328 327 324 324 322 319 318 326 327 328 327 327 325 325 325 325
313 315 316 315 318 320 319 318 319 320 312 307 308 317 323 328 328 328 332 333 333 333 333 334 332 332 332 329 327 324 322 322 321 319 319 322 325 330 329 324 324 323 320
312 313 315 315 315 319 321 318 318 317 319 320 319 321 323 325 325 327 328 329 331 333 333 332 332 332 332 330 329 330 330 327 323 320 319 318 322 325 323 322 321 322 324
311 312 313 315 315 316 320 319 319 318 316 317 316 315 320 323 325 327 329 327 330 330 331 332 331 331 333 333 333 332 329 326 325 320 320 318 320 323 323 323 323 322 323
311 311 312 313 315 316 316 318 319 318 317 317 309 307 308 321 323 323 329 326 330 330 331 330 329 331 331 331 333 332 330 325 327 325 323 320 322 323 324 324 323 324 323
310 311 311 312 313 314 315 316 318 318 317 316 316 317 316 319 320 316 319 326 330 331 331 332 332 333 331 331 331 331 331 330 329 327 325 321 318 322 324 324 324 324 324
309 310 309 310 311 312 315 316 319 318 317 314 314 314 315 317 318 313 317 322 327 329 329 330 330 331 330 328 326 326 327 328 330 329 325 322 320 322 324 321 322 322 323
310 310 310 310 309 310 312 314 317 317 315 314 314 314 315 316 317 311 315 319 325 326 328 329 330 331 329 328 329 327 328 325 326 326 324 320 321 322 321 319 319 320 319
311 311 310 310 309 309 311 313 316 315 316 315 314 313 311 308 311 314 317 318 323 325 322 325 328 330 329 329 329 328 327 325 325 325 324 325 323 321 319 318 318 318 318
311 310 311 310 310 310 310 312 313 314 312 309 308 309 311 309 313 316 317 318 320 323 324 323 322 326 329 330 330 329 327 324 325 324 323 323 322 321 321 320 320 320 320
310 311 311 310 310 311 312 311 314 312 311 310 310 312 313 313 314 315 315 315 318 320 322 321 319 319 324 328 328 328 327 326 325 325 324 323 322 321 320 322 323 320 316
310 308 310 309 311 310 311 311 311 307 312 313 310 313 314 313 313 314 314 315 315 315 316 319 319 317 315 322 324 325 325 324 322 322 322 321 320 318 319 318 316 315 313
308 310 307 309 309 309 310 311 311 311 310 311 312 309 312 312 312 313 313 313 314 314 314 313 312 315 309 314 319 319 320 319 319 319 318 317 316 315 314 312 312 312 312
307 307 307 308 309 310 310 309 310 311 310 310 311 310 311 311 311 310 311 312 312 312 311 311 311 312 311 312 312 312 313 313 314 313 312 312 312 311 311 312 311 312 312
307 306 307 307 307 309 309 307 308 311 310 309 310 310 311 310 310 309 308 309 309 309 310 310 309 312 313 310 311 311 310 311 311 310 312 310 310 310 310 309 308 308 308
305 305 305 308 308 307 308 306 308 309 309 307 309 309 308 308 307 307 307 307 307 307 308 307 308 308 312 310 309 308 308 309 309 310 310 309 308 308 308 308 308 307 307
305 305 304 306 307 308 308 306 308 304 308 308 307 306 307 307 306 306 305 305 305 305 307 306 307 308 308 311 309 307 306 307 307 308 309 309 309 309 308 308 307 307 307
303 304 304 307 308 306 308 306 307 307 307 306 305 305 304 304 304 303 303 302 303 304 304 304 304 304 305 305 305 306 307 308 310 310 310 311 310 309 307 307 307 307 307
304 304 305 306 307 307 307 306 305 304 304 304 303 302 302 301 301 301 301 301 301 302 302 303 303 303 304 305 305 306 306 307 309 309 309 310 310 309 308 307 307 307 308
305 306 306 306 306 305 304 303 303 302 301 300 300 300 299 300 300 300 300 300 301 301 301 301 301 302 302 302 302 303 304 305 305 305 305 306 307 308 308 308 308 308 308
Wind_Speed
17 17 16 16 16 11 9 9 13 18 20 19 20 18 19 20 24 27 23 26 38 37 34 30 28 26 23 20 17 14 13 13 13 9 5 15 21 16 12 7 6 5 10
14 15 16 16 15 16 11 9 11 16 16 19 20 18 18 19 21 25 24 25 30 34 32 29 28 21 24 24 19 17 14 13 12 10 9 13 14 12 11 7 5 6 7
11 12 13 14 15 14 14 14 10 9 17 23 22 20 18 19 19 19 17 18 23 29 27 27 24 23 22 21 23 18 17 14 13 9 11 14 10 12 9 8 5 6 4
13 12 12 12 12 13 13 11 12 11 14 24 18 19 18 18 18 18 17 18 18 29 32 27 23 26 25 28 25 24 18 16 15 12 10 11 15 13 10 8 7 8 5
15 14 13 12 11 11 13 11 9 9 12 12 17 16 18 17 17 18 19 17 17 21 31 32 31 28 26 28 27 28 22 24 16 15 13 13 13 14 12 6 7 7 11
16 15 14 13 10 11 10 11 11 9 9 12 13 16 17 22 20 26 25 14 13 21 25 29 32 33 36 32 34 28 25 26 25 20 18 18 17 17 12 11 7 7 8
17 17 16 14 14 11 11 11 10 11 11 10 10 15 17 20 21 23 30 32 32 33 32 34 37 32 36 36 33 32 29 27 26 26 25 19 11 19 15 16 11 9 8
20 18 17 16 17 14 13 11 11 10 11 14 15 14 15 16 19 23 27 30 34 33 33 36 34 33 35 33 36 38 38 37 44 36 32 31 24 15 19 18 16 14 16
22 21 19 19 18 18 17 14 14 12 11 11 11 13 17 19 17 22 21 27 30 29 30 33 35 36 36 35 37 43 46 45 46 37 41 36 31 26 24 18 17 9 10
22 22 21 20 20 20 18 17 16 16 12 11 13 14 16 17 17 20 23 24 27 30 31 32 31 37 38 39 39 40 43 40 46 47 45 36 34 32 29 22 18 15 11
22 23 23 23 22 22 23 22 19 18 14 15 14 17 17 14 22 22 23 25 27 28 30 34 34 33 32 36 34 32 41 44 42 46 48 44 32 36 34 28 22 21 16
22 23 24 24 25 26 26 27 23 17 17 14 14 14 12 16 22 20 23 22 22 25 26 27 29 29 26 27 29 32 36 39 45 45 45 48 49 42 35 30 23 20 21
20 22 26 25 24 27 28 26 22 18 18 17 16 15 13 13 19 24 21 22 24 26 27 28 28 24 25 21 25 25 26 34 50 53 51 48 48 44 27 22 17 27 23
24 22 22 24 28 27 32 26 26 23 22 19 16 13 14 16 16 27 24 22 21 22 23 29 30 29 25 23 23 23 24 24 36 48 42 39 39 32 23 19 21 33 31
21 21 21 22 24 27 30 28 27 24 21 16 13 11 13 17 22 26 25 21 20 21 18 24 24 31 32 29 25 22 19 16 25 24 39 35 24 25 33 39 44 48 48
20 21 20 20 22 25 28 28 30 30 21 18 16 13 13 15 19 20 20 18 19 19 19 19 25 28 35 35 28 25 21 20 23 28 31 32 34 37 40 44 42 41 37
21 19 19 18 19 20 21 27 27 26 18 14 14 12 10 12 14 15 15 17 14 15 15 16 19 25 25 28 27 28 26 29 33 33 32 32 34 36 34 37 44 39 35
18 20 19 19 20 20 20 24 33 28 9 10 12 13 10 9 12 14 13 11 8 9 11 10 11 11 21 23 23 22 22 26 28 28 28 30 29 26 29 31 29 27 26
20 18 20 19 17 12 12 16 23 21 24 15 15 12 13 11 10 12 12 10 8 2 3 2 2 3 10 10 12 13 13 15 15 15 15 15 16 17 18 19 20 21 22
23 22 20 17 18 16 14 16 16 17 20 18 13 9 9 7 3 8 9 6 4 3 3 1 4 6 1 10 7 7 9 9 10 8 6 7 9 12 14 15 17 19 21
24 22 18 17 15 15 11 16 14 12 13 15 14 11 8 6 8 4 2 3 1 2 0 2 0 1 1 6 5 6 6 6 8 11 13 14 15 14 14 14 13 12 13
23 20 21 17 13 14 12 10 5 12 10 8 6 6 6 5 3 2 4 3 4 3 5 3 2 1 1 4 4 2 0 3 5 7 8 9 10 10 10 11 11 13 14
21 21 16 15 12 9 8 5 5 3 8 9 10 10 10 11 8 6 4 2 2 3 3 3 2 3 4 3 8 7 2 6 9 7 8 8 7 8 9 10 12 12 11
15 11 11 9 5 4 4 5 3 6 9 10 9 8 6 5 5 5 5 4 3 5 5 6 5 4 4 5 4 2 3 3 3 4 4 3 3 3 4 6 7 8 9
11 9 11 2 6 7 4 7 8 10 12 11 11 11 9 7 9 10 10 13 12 11 10 9 7 5 4 7 8 4 2 3 4 5 7 7 6 6 6 6 7 6 7
16 15 12 7 7 10 12 15 17 15 16 15 13 16 18 20 21 17 16 18 18 15 14 12 10 8 8 9 9 8 7 8 10 11 13 12 10 7 6 5 5 4 4
Wind_Direction
6 7 8 10 0 348 320 264 251 255 244 240 236 226 222 228 230 233 244 252 238 228 226 217 224 224 219 235 236 233 235 242 249 256 228 237 247 240 242 254 269 306 308
348 352 355 357 359 356 341 319 275 242 225 208 206 232 231 227 237 245 254 253 241 229 221 221 224 225 221 213 225 225 225 234 236 249 233 242 250 238 234 247 255 248 257
335 340 340 350 351 353 353 345 308 265 217 218 237 251 239 240 245 243 242 249 241 229 231 231 229 217 219 226 223 227 219 223 239 232 233 234 244 233 240 246 264 289 322
317 326 325 329 340 342 342 345 341 317 270 250 248 254 245 240 240 235 238 245 247 229 230 225 228 227 227 236 231 221 216 211 225 228 225 232 226 239 238 238 280 314 248
308 311 300 307 314 327 332 337 336 332 324 294 259 249 239 243 249 242 230 250 246 229 219 231 235 242 242 241 234 233 220 226 216 229 224 230 233 228 236 254 227 243 271
303 299 301 283 299 306 317 327 331 321 324 321 300 274 267 249 239 249 240 244 249 243 240 234 239 258 250 236 243 230 233 230 228 219 232 231 236 234 232 226 243 250 266
298 293 288 284 270 278 296 309 313 318 320 313 301 306 295 274 265 257 249 250 258 260 256 254 267 259 248 237 238 236 228 230 248 237 226 229 237 232 234 255 254 254 268
289 287 281 277 275 270 269 286 295 308 316 322 317 308 291 292 291 268 263 261 259 261 257 257 256 252 253 247 236 236 237 237 249 243 238 235 235 229 240 241 241 258 276
287 281 278 273 272 274 257 269 278 282 292 300 303 298 295 296 288 290 283 263 263 261 257 254 254 255 254 250 247 250 249 244 239 230 246 239 242 241 251 254 263 286 280
285 282 274 271 267 266 271 258 261 271 284 286 290 299 296 296 295 282 292 281 265 262 262 257 257 255 255 255 254 254 247 244 232 224 233 234 243 247 248 248 265 249 262
283 281 279 270 268 264 262 255 255 261 273 281 289 297 305 304 285 278 270 278 264 265 263 262 263 263 254 252 254 251 245 244 240 235 230 232 242 250 247 246 248 256 254
284 279 277 275 265 260 263 258 250 251 262 277 288 291 295 291 294 296 284 283 267 257 265 264 267 266 261 254 251 253 258 251 230 231 233 225 229 250 242 241 240 256 259
287 284 276 267 267 259 258 259 243 239 249 257 263 276 286 291 298 300 301 287 276 264 262 259 259 259 257 251 247 258 271 264 249 239 222 221 213 235 229 235 250 251 268
293 281 281 276 266 257 255 259 239 238 244 251 260 272 286 299 307 303 304 294 285 275 274 265 261 252 245 251 254 259 272 262 245 223 216 213 211 204 219 239 253 251 262
291 288 283 277 273 265 258 256 240 230 234 227 244 261 283 298 302 305 306 302 294 279 279 281 256 249 249 252 252 254 255 247 238 207 207 205 221 232 235 254 259 255 262
303 295 287 285 283 268 262 258 243 228 234 231 239 249 275 293 304 311 308 306 291 284 267 275 286 263 253 256 248 244 243 239 246 241 229 229 237 246 249 252 254 243 246
297 294 295 289 285 273 267 260 219 222 218 228 236 246 263 288 302 320 323 311 300 287 275 271 304 275 255 243 236 233 231 240 241 244 245 244 243 250 260 258 245 235 226
310 297 288 284 287 278 268 259 255 269 269 252 243 247 255 275 291 302 308 311 319 327 288 269 272 276 247 221 217 222 228 234 240 239 242 241 244 238 226 228 227 226 226
305 302 291 282 289 284 292 278 258 240 239 244 230 244 262 276 288 294 293 289 273 248 360 354 140 156 261 161 177 193 201 208 212 215 212 210 211 213 212 217 222 226 227
300 298 292 287 282 280 281 301 257 237 230 232 226 229 248 263 261 275 287 291 290 266 215 279 159 119 75 75 82 126 138 154 157 165 181 202 202 199 211 215 219 229 234
297 290 281 285 275 272 283 308 258 227 228 221 228 221 229 245 224 216 199 214 232 201 280 159 165 134 83 56 92 136 139 149 166 183 192 206 208 214 218 218 221 229 231
295 289 267 269 272 268 265 304 291 248 207 183 183 200 175 142 105 206 260 297 293 278 227 246 264 179 353 316 61 65 186 193 203 201 206 219 236 237 242 242 231 229 237
299 286 271 238 258 257 261 289 338 160 159 162 167 161 176 169 180 189 168 179 220 233 228 235 172 167 159 187 255 225 292 233 234 235 230 234 239 241 239 233 222 223 225
307 270 217 219 235 240 245 207 264 155 171 164 156 149 146 148 152 149 153 109 107 116 99 111 104 96 120 178 238 282 260 248 245 219 212 185 188 199 201 198 195 201 197
49 96 142 168 128 148 164 151 149 133 129 128 125 123 113 105 96 94 100 87 81 86 88 86 88 85 100 119 131 132 179 169 169 127 99 93 94 119 148 169 176 182 199
95 103 111 124 138 139 136 127 117 116 116 114 109 105 99 103 89 78 84 84 73 75 68 69 62 87 92 100 95 96 95 99 101 100 96 85 82 78 102 116 124 149 194